map of BFN home
Great Circle Mapper logo
BFN - Airport
Location
City:  Bloemfontein, South Africa
Name:J.B.M. Hertzog
ICAO / IATA:FABL / BFN

Details
Type:Airport (Aerodrome, Airfield)
Use:Public/Civil, Military, International (customs port of entry)
Latitude:2905'34"S (-29.092721)
Longitude:2618'09"E (26.302444)
Datum:WGS 1984
Elevation:4458 ft (1359 m)
Variation:22.1W (WMM2015 magnetic declination)
Runways:2
Longest:8396 × 151 ft (2559 × 46 m), paved

Time
Time Zone:UTC+2
Local Time:

Weather
METAR:FABL 212100Z AUTO 29006KT //// // ////// 22/09 Q1018
TAF:FABL 202200Z 2100/2124 25006KT CAVOK
BECMG 2101/2103 VRB02KT
BECMG 2105/2107 33010KT
BECMG 2109/2111 28016KT
BECMG 2120/2122 22006KT TX31/2112ZTN14/2105Z

Related Locations
Nearby:
Farthest:LUP: 11852 mi / 19074 km
Kalaupapa, Molokai, HI, US

Find:

   beyond  
but within

Other Information
Maps:
NOTAMs:
Links:
Sources:

  
flag of South Africa   

Sectional Chart

Flight Planning
at skyvector.com

Satellite Image

Google Maps Satellite View

 

Copyright © 2004-2014 Karl L. Swartz. All rights reserved.
The Great Circle Mapper name and logo are trademarks of the Great Circle Mapper.
All other trademarks mentioned herein belong to their respective owners.
Please see credits for attibutions and further copyright information.

  Follow gcmap on Facebook Follow gcmap on Twitter

hCard Microformat

Geo Microformat